STARLINK-1039, 44744

Orbit data source: Space-Track

STARLINK-1039, 44744 is a payload satellite owned by SpaceX/Seattle (US) in LEO that was launched on Mon, 11 Nov 2019 UTC via an FALCON 9 launch vehicle from the Air Force Eastern Test Range (AFETR). Payload-class satellites include a variety of spacecraft equipped with specific instruments for various scientific and technological missions. These include communications satellites like Starlink; space stations such as the ISS; scientific satellites like the Hubble; Earth observation satellites from companies like Planet Labs, Umbra, and HawkEye 360; GPS; miniature CubeSats for education and research; and military/defense satellites.

Loading next visibility...
Identifier
44744, 2019-074AH
Orbit
LEO
Last TLE update
10 hours ago
Origin
Manufacturer
SpaceX/Seattle
Mission
Operational Commercial Communications
Bus & Motor
STARLINK, Unknown motor
Mass
260 kg wet, ~248 kg dry
Launch date (UTC)
2019-11-11 (6 years ago)
Launch vehicle
FALCON 9
Launch site
Air Force Eastern Test Range (AFETR)
Object type
Payload
Rocket body
Debris
Shape & HBR
Box + 1 Pan, 8.86 m
Radar Cross Section
13.562 m², Large (>1 m²)

Expand to show TLE details & history

TLE from 10 hours ago
0 STARLINK-1039
1 44744U 19074AH  25181.98847078  .00001586  00000-0  12532-3 0  9998
2 44744  53.0552 276.5489 0000977  91.2185 268.8916 15.06396977310428
Epoch: 2025-06-30T23:43Z
TLE epoch observation values (Epoch: 2025-06-30T23:43:23.875Z)
Latitude
-0.00001°
Longitude
1.40903°
Altitude
548.113 km
Speed
7.589 km/s
True Right ascension
18h 26m 11s
True Declination
0° 00' 00"
Sunlit
Object was in full shadow at epoch
Visualization orbit readout
Latitude
3.77786°
Longitude
176.64584°
Altitude
547.598 km
Speed
7.59 km/s
Apparent Right ascension
07h 34m 38s
Apparent Declination
-18° 52' 29"
Sunlit
Object is in daylight
Visualization observer readout
Local Sidereal Time
21:41:29
Azimuth
61.646° ENE
Elevation
-55.587°
Doppler factor
1
Orbital elements
Apogee altitude
548.168 km
Perigee altitude
546.815 km
Semi-major axis
6,925.628 km
Eccentricity
0.0001
Inclination
53.0552°
RAAN
276.5489°
Arg. of periapsis
91.2185°
True anomaly
Unknown
Mean anomaly
268.8916°
Eccentric anomaly
Unknown
Mean motion
3.76578 °/min
Orbital period
95.6 mins
BSTAR
0.00012532
Loading maneuver chart data...
Loading SW <> Apogee altitude chart data...

STARLINK-1039 Visibility forecast

Observer location: undefined°, undefined°

Span
Click to sort rows by Start time (UTC) header in descending order
Start Az.
Max El. time (UTC)
Max El. Az.
Max El.
End time (UTC)
End Az.
5 mins2025-07-01 11:09:05.880Z301.556° NW2025-07-01 11:11:05.880Z333.618° NNW17.438°2025-07-01 11:14:05.880Z23.635° NE
5 mins2025-07-01 14:31:05.880Z344.499° N2025-07-01 14:33:05.880Z25.168° NE22.315°2025-07-01 14:36:05.880Z77.086° E
6 mins2025-07-01 16:10:05.880Z302.789° NW2025-07-01 16:13:05.880Z200.538° SSW42.769°2025-07-01 16:16:05.880Z141.435° SSE
4 mins2025-07-02 07:44:05.880Z163.026° S2025-07-02 07:46:05.880Z122.887° SE20.552°2025-07-02 07:48:05.880Z87.149° E
5 mins2025-07-02 09:23:05.880Z260.192° W2025-07-02 09:25:05.880Z325.224° NNW38.167°2025-07-02 09:28:05.880Z37.919° NE
|